Tracking 31027 objects as of 19-Jul-2025
HD Live streaming from Space Station
objects crossing your sky now

COSMOS 2251 DEB

Track COSMOS 2251 DEB now!
10-day predictions


NORAD ID: 33760
Int'l Code: 1993-036H
Perigee: 765.2 km
Apogee: 795.6 km
Inclination: 74.0 °
Period: 100.3 minutes
Semi major axis: 7151 km
RCS: 0.111 m2 (medium)
Launch date: June 16, 1993
Source: Commonwealth of Independent States (former USSR) (CIS)
Launch site: PLESETSK MISSILE AND SPACE COMPLEX (PKMTR)

Note: This is SATELLITE DEBRIS
Your satellite tracking list
No more satellites can be added for tracking (max 5)
FOX-1B (RADFXSAT AO-91)
FOX-1D (AO-92)
FOX-1A (AO-85)
FUNCUBE 1 (AO-73)
SPACE STATION
Track 5 satellite(s)




NASA's NSSDC Master Catalog

Two Line Element Set (TLE):
1 33760U 93036H   25199.93701407  .00000194  00000-0  76480-4 0  9990
2 33760  74.0301 190.8514 0021260 325.2134  55.7464 14.35553052860182
Source of the keplerian elements: AFSPC